This is the latest recevied weather packets stored in our database for station/object VR2OT-10. If no packets are shown the sender has not sent any weather packets the latest 10 day(s).
| Time | Temp. | Humidity | Pressure | Rain* | Wind** | Luminosity | Snow |
|---|---|---|---|---|---|---|---|
| 1777386738 | 25.56° C | 83% | 1010 hPa | - | 3.58 m/s, 135° | - | - |
| 1777385838 | 25.56° C | 84% | 1010.2 hPa | - | 3.13 m/s, 135° | - | - |
| 1777384939 | 25° C | 83% | 1010.3 hPa | - | 3.13 m/s, 135° | - | - |
| 1777384038 | 25° C | 84% | 1009.8 hPa | - | 2.68 m/s, 135° | - | - |
| 1777383138 | 24.44° C | 83% | 1009.6 hPa | - | 2.24 m/s, 135° | - | - |
| 1777382237 | 25° C | 83% | 1009.5 hPa | - | 2.24 m/s, 135° | - | - |
| 1777381337 | 24.44° C | 83% | 1009.8 hPa | - | 2.24 m/s, 135° | - | - |
| 1777380438 | 24.44° C | 84% | 1010 hPa | - | 1.79 m/s, 135° | - | - |
| 1777379539 | 24.44° C | 84% | 1009.7 hPa | - | 1.79 m/s, 135° | - | - |
| 1777377739 | 24.44° C | 85% | 1009.7 hPa | - | 1.34 m/s, 180° | - | - |
| 1777375938 | 24.44° C | 84% | 1009.5 hPa | - | 1.79 m/s, 135° | - | - |
| 1777375038 | 24.44° C | 85% | 1009.3 hPa | - | 2.68 m/s, 135° | - | - |
| 1777374138 | 24.44° C | 83% | 1009.1 hPa | - | 1.34 m/s, 135° | - | - |
| 1777372339 | 24.44° C | 82% | 1008.8 hPa | - | 3.58 m/s, 135° | - | - |
| 1777371438 | 24.44° C | 80% | 1008.7 hPa | - | 3.58 m/s, 135° | - | - |
| 1777370538 | 24.44° C | 80% | 1008.3 hPa | - | 3.58 m/s, 135° | - | - |
| 1777369638 | 24.44° C | 81% | 1008.3 hPa | - | 4.02 m/s, 135° | - | - |
| 1777368738 | 25° C | 79% | 1008.3 hPa | - | 4.47 m/s, 135° | - | - |
| 1777367837 | 25° C | 79% | 1008.3 hPa | - | 4.02 m/s, 90° | - | - |
| 1777366938 | 25° C | 78% | 1008.3 hPa | - | 3.58 m/s, 135° | - | - |
| 1777365137 | 24.44° C | 81% | 1008.5 hPa | - | 3.13 m/s, 90° | - | - |
| 1777364238 | 24.44° C | 81% | 1008.5 hPa | - | 3.13 m/s, 135° | - | - |
| 1777363339 | 24.44° C | 84% | 1008.6 hPa | - | 3.13 m/s, 135° | - | - |
| 1777362438 | 24.44° C | 81% | 1008.6 hPa | - | 2.68 m/s, 90° | - | - |
| 1777361539 | 23.89° C | 76% | 1008.7 hPa | - | 4.47 m/s, 135° | - | - |
* Rain since midnight (hover to see other rain measurements)
** Current wind speed in m/s (hover to see current wind gust speed)